Year,Month,Day,Hour,Minute,Value (Times are PST for temperature in C)
2015,11,18,00,00,6.20
2015,11,18,00,01,6.20
2015,11,18,00,02,6.10
2015,11,18,00,03,6.00
2015,11,18,00,04,5.90
2015,11,18,00,05,5.90
2015,11,18,00,06,5.90
2015,11,18,00,07,5.90
2015,11,18,00,08,5.80
2015,11,18,00,09,5.80
2015,11,18,00,10,5.70
2015,11,18,00,11,5.70
2015,11,18,00,12,5.80
2015,11,18,00,13,5.90
2015,11,18,00,14,6.00
2015,11,18,00,15,6.20
2015,11,18,00,16,6.30
2015,11,18,00,17,6.30
2015,11,18,00,18,6.40
2015,11,18,00,19,6.50
2015,11,18,00,20,6.60
2015,11,18,00,21,6.60
2015,11,18,00,22,6.60
2015,11,18,00,23,6.60
2015,11,18,00,24,6.60
2015,11,18,00,25,6.60
2015,11,18,00,26,6.60
2015,11,18,00,27,6.60
2015,11,18,00,28,6.60
2015,11,18,00,29,6.60
2015,11,18,00,30,6.60
2015,11,18,00,31,6.60
2015,11,18,00,32,6.60
2015,11,18,00,33,6.60
2015,11,18,00,34,6.60
2015,11,18,00,35,6.60
2015,11,18,00,36,6.60
2015,11,18,00,37,6.60
2015,11,18,00,38,6.60
2015,11,18,00,39,6.60
2015,11,18,00,40,6.60
2015,11,18,00,41,6.60
2015,11,18,00,42,6.60
2015,11,18,00,43,6.60
2015,11,18,00,44,6.60
2015,11,18,00,45,6.60
2015,11,18,00,46,6.60
2015,11,18,00,47,6.60
2015,11,18,00,48,6.60
2015,11,18,00,49,6.60
2015,11,18,00,50,6.60
2015,11,18,00,51,6.60
2015,11,18,00,52,6.60
2015,11,18,00,53,6.60
2015,11,18,00,54,6.60
2015,11,18,00,55,6.60
2015,11,18,00,56,6.60
2015,11,18,00,57,6.60
2015,11,18,00,58,6.60
2015,11,18,00,59,6.50
2015,11,18,01,00,6.40
2015,11,18,01,01,6.40
2015,11,18,01,02,6.40
2015,11,18,01,03,6.40
2015,11,18,01,04,6.40
2015,11,18,01,05,6.40
2015,11,18,01,06,6.30
2015,11,18,01,07,6.30
2015,11,18,01,08,6.30
2015,11,18,01,09,6.30
2015,11,18,01,10,6.20
2015,11,18,01,11,6.20
2015,11,18,01,12,6.20
2015,11,18,01,13,6.20
2015,11,18,01,14,6.10
2015,11,18,01,15,6.00
2015,11,18,01,16,6.00
2015,11,18,01,17,6.00
2015,11,18,01,18,5.90
2015,11,18,01,19,5.90
2015,11,18,01,20,5.90
2015,11,18,01,21,5.90
2015,11,18,01,22,5.90
2015,11,18,01,23,5.90
2015,11,18,01,24,6.00
2015,11,18,01,25,6.10
2015,11,18,01,26,6.10
2015,11,18,01,27,6.20
2015,11,18,01,28,6.20
2015,11,18,01,29,6.20
2015,11,18,01,30,6.20
2015,11,18,01,31,6.20
2015,11,18,01,32,6.20
2015,11,18,01,33,6.20
2015,11,18,01,34,6.20
2015,11,18,01,35,6.20
2015,11,18,01,36,6.20
2015,11,18,01,37,6.20
2015,11,18,01,38,6.20
2015,11,18,01,39,6.20
2015,11,18,01,40,6.20
2015,11,18,01,41,6.10
2015,11,18,01,42,6.10
2015,11,18,01,43,6.10
2015,11,18,01,44,6.10
2015,11,18,01,45,6.00
2015,11,18,01,46,6.00
2015,11,18,01,47,6.00
2015,11,18,01,48,5.90
2015,11,18,01,49,5.90
2015,11,18,01,50,5.90
2015,11,18,01,51,5.80
2015,11,18,01,52,5.80
2015,11,18,01,53,5.70
2015,11,18,01,54,5.70
2015,11,18,01,55,5.70
2015,11,18,01,56,5.70
2015,11,18,01,57,5.70
2015,11,18,01,58,5.80
2015,11,18,01,59,5.80
2015,11,18,02,00,5.80
2015,11,18,02,01,5.70
2015,11,18,02,02,5.60
2015,11,18,02,03,5.60
2015,11,18,02,04,5.50
2015,11,18,02,05,5.40
2015,11,18,02,06,5.30
2015,11,18,02,07,5.30
2015,11,18,02,08,5.20
2015,11,18,02,09,5.20
2015,11,18,02,10,5.10
2015,11,18,02,11,5.10
2015,11,18,02,12,5.00
2015,11,18,02,13,4.90
2015,11,18,02,14,4.90
2015,11,18,02,15,4.90
2015,11,18,02,16,4.90
2015,11,18,02,17,4.90
2015,11,18,02,18,4.90
2015,11,18,02,19,4.90
2015,11,18,02,20,4.90
2015,11,18,02,21,4.90
2015,11,18,02,22,4.80
2015,11,18,02,23,4.70
2015,11,18,02,24,4.60
2015,11,18,02,25,4.60
2015,11,18,02,26,4.60
2015,11,18,02,27,4.60
2015,11,18,02,28,4.60
2015,11,18,02,29,4.70
2015,11,18,02,30,4.80
2015,11,18,02,31,4.90
2015,11,18,02,32,5.00
2015,11,18,02,33,5.10
2015,11,18,02,34,5.20
2015,11,18,02,35,5.20
2015,11,18,02,36,5.20
2015,11,18,02,37,5.30
2015,11,18,02,38,5.30
2015,11,18,02,39,5.30
2015,11,18,02,40,5.30
2015,11,18,02,41,5.30
2015,11,18,02,42,5.30
2015,11,18,02,43,5.30
2015,11,18,02,44,5.50
2015,11,18,02,45,5.50
2015,11,18,02,46,5.60
2015,11,18,02,47,5.60
2015,11,18,02,48,5.60
2015,11,18,02,49,5.60
2015,11,18,02,50,5.70
2015,11,18,02,51,5.70
2015,11,18,02,52,5.70
2015,11,18,02,53,5.70
2015,11,18,02,54,5.70
2015,11,18,02,55,5.70
2015,11,18,02,56,5.70
2015,11,18,02,57,5.70
2015,11,18,02,58,5.70
2015,11,18,02,59,5.70
2015,11,18,03,00,5.80
2015,11,18,03,01,5.80
2015,11,18,03,02,5.90
2015,11,18,03,03,5.90
2015,11,18,03,04,5.90
2015,11,18,03,05,5.90
2015,11,18,03,06,5.90
2015,11,18,03,07,5.90
2015,11,18,03,08,5.90
2015,11,18,03,09,5.90
2015,11,18,03,10,5.90
2015,11,18,03,11,5.90
2015,11,18,03,12,6.00
2015,11,18,03,13,6.00
2015,11,18,03,14,6.00
2015,11,18,03,15,6.00
2015,11,18,03,16,6.00
2015,11,18,03,17,6.00
2015,11,18,03,18,5.90
2015,11,18,03,19,5.90
2015,11,18,03,20,5.90
2015,11,18,03,21,5.90
2015,11,18,03,22,5.90
2015,11,18,03,23,5.90
2015,11,18,03,24,5.90
2015,11,18,03,25,5.90
2015,11,18,03,26,6.00
2015,11,18,03,27,6.00
2015,11,18,03,28,6.10
2015,11,18,03,29,6.20
2015,11,18,03,30,6.20
2015,11,18,03,31,6.30
2015,11,18,03,32,6.30
2015,11,18,03,33,6.30
2015,11,18,03,34,6.40
2015,11,18,03,35,6.40
2015,11,18,03,36,6.40
2015,11,18,03,37,6.40
2015,11,18,03,38,6.50
2015,11,18,03,39,6.60
2015,11,18,03,40,6.60
2015,11,18,03,41,6.60
2015,11,18,03,42,6.60
2015,11,18,03,43,6.60
2015,11,18,03,44,6.70
2015,11,18,03,45,6.70
2015,11,18,03,46,6.70
2015,11,18,03,47,6.70
2015,11,18,03,48,6.70
2015,11,18,03,49,6.80
2015,11,18,03,50,6.80
2015,11,18,03,51,6.80
2015,11,18,03,52,6.80
2015,11,18,03,53,6.80
2015,11,18,03,54,6.80
2015,11,18,03,55,6.80
2015,11,18,03,56,6.70
2015,11,18,03,57,6.70
2015,11,18,03,58,6.70
2015,11,18,03,59,6.70
2015,11,18,04,00,6.80
2015,11,18,04,01,6.80
2015,11,18,04,02,6.80
2015,11,18,04,03,6.80
2015,11,18,04,04,6.80
2015,11,18,04,05,6.80
2015,11,18,04,06,6.80
2015,11,18,04,07,6.80
2015,11,18,04,08,6.80
2015,11,18,04,09,6.80
2015,11,18,04,10,6.80
2015,11,18,04,11,6.80
2015,11,18,04,12,6.80
2015,11,18,04,13,6.80
2015,11,18,04,14,6.70
2015,11,18,04,15,6.70
2015,11,18,04,16,6.70
2015,11,18,04,17,6.60
2015,11,18,04,18,6.60
2015,11,18,04,19,6.60
2015,11,18,04,20,6.60
2015,11,18,04,21,6.60
2015,11,18,04,22,6.60
2015,11,18,04,23,6.60
2015,11,18,04,24,6.60
2015,11,18,04,25,6.60
2015,11,18,04,26,6.60
2015,11,18,04,27,6.50
2015,11,18,04,28,6.40
2015,11,18,04,29,6.40
2015,11,18,04,30,6.40
2015,11,18,04,31,6.40
2015,11,18,04,32,6.40
2015,11,18,04,33,6.40
2015,11,18,04,34,6.40
2015,11,18,04,35,6.40
2015,11,18,04,36,6.30
2015,11,18,04,37,6.30
2015,11,18,04,38,6.30
2015,11,18,04,39,6.30
2015,11,18,04,40,6.30
2015,11,18,04,41,6.30
2015,11,18,04,42,6.20
2015,11,18,04,43,6.20
2015,11,18,04,44,6.20
2015,11,18,04,45,6.20
2015,11,18,04,46,6.10
2015,11,18,04,47,6.10
2015,11,18,04,48,6.10
2015,11,18,04,49,6.00
2015,11,18,04,50,6.00
2015,11,18,04,51,6.00
2015,11,18,04,52,6.00
2015,11,18,04,53,5.90
2015,11,18,04,54,5.90
2015,11,18,04,55,5.90
2015,11,18,04,56,5.90
2015,11,18,04,57,5.90
2015,11,18,04,58,5.90
2015,11,18,04,59,5.80
2015,11,18,05,00,5.80
2015,11,18,05,01,5.80
2015,11,18,05,02,5.80
2015,11,18,05,03,5.80
2015,11,18,05,04,5.80
2015,11,18,05,05,5.70
2015,11,18,05,06,5.70
2015,11,18,05,07,5.70
2015,11,18,05,08,5.70
2015,11,18,05,09,5.70
2015,11,18,05,10,5.70
2015,11,18,05,11,5.70
2015,11,18,05,12,5.60
2015,11,18,05,13,5.60
2015,11,18,05,14,5.60
2015,11,18,05,15,5.50
2015,11,18,05,16,5.50
2015,11,18,05,17,5.50
2015,11,18,05,18,5.40
2015,11,18,05,19,5.40
2015,11,18,05,20,5.30
2015,11,18,05,21,5.30
2015,11,18,05,22,5.20
2015,11,18,05,23,5.20
2015,11,18,05,24,5.10
2015,11,18,05,25,5.10
2015,11,18,05,26,5.10
2015,11,18,05,27,5.00
2015,11,18,05,28,4.90
2015,11,18,05,29,4.90
2015,11,18,05,30,4.90
2015,11,18,05,31,4.80
2015,11,18,05,32,4.80
2015,11,18,05,33,4.70
2015,11,18,05,34,4.60
2015,11,18,05,35,4.60
2015,11,18,05,36,4.60
2015,11,18,05,37,4.60
2015,11,18,05,38,4.50
2015,11,18,05,39,4.50
2015,11,18,05,40,4.50
2015,11,18,05,41,4.50
2015,11,18,05,42,4.50
2015,11,18,05,43,4.50
2015,11,18,05,44,4.50
2015,11,18,05,45,4.40
2015,11,18,05,46,4.40
2015,11,18,05,47,4.40
2015,11,18,05,48,4.40
2015,11,18,05,49,4.40
2015,11,18,05,50,4.30
2015,11,18,05,51,4.30
2015,11,18,05,52,4.30
2015,11,18,05,53,4.20
2015,11,18,05,54,4.20
2015,11,18,05,55,4.10
2015,11,18,05,56,4.00
2015,11,18,05,57,4.00
2015,11,18,05,58,3.90
2015,11,18,05,59,3.90
2015,11,18,06,00,4.00
2015,11,18,06,01,4.00
2015,11,18,06,02,4.00
2015,11,18,06,03,4.00
2015,11,18,06,04,4.00
2015,11,18,06,05,4.00
2015,11,18,06,06,3.90
2015,11,18,06,07,3.80
2015,11,18,06,08,3.80
2015,11,18,06,09,3.90
2015,11,18,06,10,4.00
2015,11,18,06,11,4.00
2015,11,18,06,12,4.00
2015,11,18,06,13,3.90
2015,11,18,06,14,3.90
2015,11,18,06,15,3.90
2015,11,18,06,16,3.80
2015,11,18,06,17,3.90
2015,11,18,06,18,3.90
2015,11,18,06,19,3.90
2015,11,18,06,20,3.80
2015,11,18,06,21,3.80
2015,11,18,06,22,3.80
2015,11,18,06,23,3.80
2015,11,18,06,24,3.80
2015,11,18,06,25,3.80
2015,11,18,06,26,3.80
2015,11,18,06,27,3.80
2015,11,18,06,28,3.80
2015,11,18,06,29,3.80
2015,11,18,06,30,3.80
2015,11,18,06,31,3.70
2015,11,18,06,32,3.70
2015,11,18,06,33,3.60
2015,11,18,06,34,3.60
2015,11,18,06,35,3.60
2015,11,18,06,36,3.50
2015,11,18,06,37,3.50
2015,11,18,06,38,3.50
2015,11,18,06,39,3.40
2015,11,18,06,40,3.40
2015,11,18,06,41,3.30
2015,11,18,06,42,3.30
2015,11,18,06,43,3.30
2015,11,18,06,44,3.20
2015,11,18,06,45,3.10
2015,11,18,06,46,3.10
2015,11,18,06,47,3.00
2015,11,18,06,48,2.90
2015,11,18,06,49,2.90
2015,11,18,06,50,2.80
2015,11,18,06,51,2.80
2015,11,18,06,52,2.70
2015,11,18,06,53,2.70
2015,11,18,06,54,2.70
2015,11,18,06,55,2.60
2015,11,18,06,56,2.60
2015,11,18,06,57,2.50
2015,11,18,06,58,2.50
2015,11,18,06,59,2.50
2015,11,18,07,00,2.50
2015,11,18,07,01,2.50
2015,11,18,07,02,2.40
2015,11,18,07,03,2.40
2015,11,18,07,04,2.40
2015,11,18,07,05,2.30
2015,11,18,07,06,2.30
2015,11,18,07,07,2.20
2015,11,18,07,08,2.20
2015,11,18,07,09,2.20
2015,11,18,07,10,2.20
2015,11,18,07,11,2.20
2015,11,18,07,12,2.20
2015,11,18,07,13,2.10
2015,11,18,07,14,2.10
2015,11,18,07,15,2.10
2015,11,18,07,16,2.10
2015,11,18,07,17,2.10
2015,11,18,07,18,2.10
2015,11,18,07,19,2.20
2015,11,18,07,20,2.20
2015,11,18,07,21,2.20
2015,11,18,07,22,2.20
2015,11,18,07,23,2.20
2015,11,18,07,24,2.20
2015,11,18,07,25,2.20
2015,11,18,07,26,2.20
2015,11,18,07,27,2.20
2015,11,18,07,28,2.20
2015,11,18,07,29,2.20
2015,11,18,07,30,2.20
2015,11,18,07,31,2.20
2015,11,18,07,32,2.20
2015,11,18,07,33,2.20
2015,11,18,07,34,2.20
2015,11,18,07,35,2.20
2015,11,18,07,36,2.20
2015,11,18,07,37,2.20
2015,11,18,07,38,2.20
2015,11,18,07,39,2.20
2015,11,18,07,40,2.20
2015,11,18,07,41,2.20
2015,11,18,07,42,2.20
2015,11,18,07,43,2.20
2015,11,18,07,44,2.20
2015,11,18,07,45,2.20
2015,11,18,07,46,2.20
2015,11,18,07,47,2.20
2015,11,18,07,48,2.20
2015,11,18,07,49,2.20
2015,11,18,07,50,2.20
2015,11,18,07,51,2.20
2015,11,18,07,52,2.20
2015,11,18,07,53,2.20
2015,11,18,07,54,2.20
2015,11,18,07,55,2.20
2015,11,18,07,56,2.30
2015,11,18,07,57,2.30
2015,11,18,07,58,2.30
2015,11,18,07,59,2.40
2015,11,18,08,00,2.40
2015,11,18,08,01,2.40
2015,11,18,08,02,2.40
2015,11,18,08,03,2.40
2015,11,18,08,04,2.40
2015,11,18,08,05,2.40
2015,11,18,08,06,2.40
2015,11,18,08,07,2.40
2015,11,18,08,08,2.40
2015,11,18,08,09,2.50
2015,11,18,08,10,2.50
2015,11,18,08,11,2.50
2015,11,18,08,12,2.50
2015,11,18,08,13,2.50
2015,11,18,08,14,2.50
2015,11,18,08,15,2.50
2015,11,18,08,16,2.50
2015,11,18,08,17,2.60
2015,11,18,08,18,2.60
2015,11,18,08,19,2.70
2015,11,18,08,20,2.70
2015,11,18,08,21,2.70
2015,11,18,08,22,2.70
2015,11,18,08,23,2.70
2015,11,18,08,24,2.80
2015,11,18,08,25,2.80
2015,11,18,08,26,2.80
2015,11,18,08,27,2.90
2015,11,18,08,28,2.90
2015,11,18,08,29,2.90
2015,11,18,08,30,2.90
2015,11,18,08,31,2.90
2015,11,18,08,32,3.00
2015,11,18,08,33,3.10
2015,11,18,08,34,3.10
2015,11,18,08,35,3.20
2015,11,18,08,36,3.20
2015,11,18,08,37,3.30
2015,11,18,08,38,3.30
2015,11,18,08,39,3.30
2015,11,18,08,40,3.30
2015,11,18,08,41,3.40
2015,11,18,08,42,3.50
2015,11,18,08,43,3.50
2015,11,18,08,44,3.50
2015,11,18,08,45,3.60
2015,11,18,08,46,3.70
2015,11,18,08,47,3.70
2015,11,18,08,48,3.80
2015,11,18,08,49,3.80
2015,11,18,08,50,3.80
2015,11,18,08,51,3.80
2015,11,18,08,52,3.90
2015,11,18,08,53,3.90
2015,11,18,08,54,4.00
2015,11,18,08,55,4.00
2015,11,18,08,56,4.10
2015,11,18,08,57,4.20
2015,11,18,08,58,4.20
2015,11,18,08,59,4.30
2015,11,18,09,00,4.30
2015,11,18,09,01,4.40
2015,11,18,09,02,4.40
2015,11,18,09,03,4.50
2015,11,18,09,04,4.50
2015,11,18,09,05,4.60
2015,11,18,09,06,4.60
2015,11,18,09,07,4.60
2015,11,18,09,08,4.70
2015,11,18,09,09,4.70
2015,11,18,09,10,4.80
2015,11,18,09,11,4.80
2015,11,18,09,12,4.90
2015,11,18,09,13,4.90
2015,11,18,09,14,4.90
2015,11,18,09,15,5.00
2015,11,18,09,16,5.10
2015,11,18,09,17,5.10
2015,11,18,09,18,5.10
2015,11,18,09,19,5.10
2015,11,18,09,20,5.10
2015,11,18,09,21,5.20
2015,11,18,09,22,5.20
2015,11,18,09,23,5.30
2015,11,18,09,24,5.30
2015,11,18,09,25,5.30
2015,11,18,09,26,5.30
2015,11,18,09,27,5.30
2015,11,18,09,28,5.30
2015,11,18,09,29,5.30
2015,11,18,09,30,5.40
2015,11,18,09,31,5.40
2015,11,18,09,32,5.40
2015,11,18,09,33,5.50
2015,11,18,09,34,5.60
2015,11,18,09,35,5.70
2015,11,18,09,36,5.70
2015,11,18,09,37,5.80
2015,11,18,09,38,5.80
2015,11,18,09,39,5.90
2015,11,18,09,40,5.90
2015,11,18,09,41,5.90
2015,11,18,09,42,5.90
2015,11,18,09,43,6.00
2015,11,18,09,44,6.10
2015,11,18,09,45,6.20
2015,11,18,09,46,6.20
2015,11,18,09,47,6.30
2015,11,18,09,48,6.30
2015,11,18,09,49,6.40
2015,11,18,09,50,6.50
2015,11,18,09,51,6.60
2015,11,18,09,52,6.60
2015,11,18,09,53,6.70
2015,11,18,09,54,6.80
2015,11,18,09,55,6.80
2015,11,18,09,56,6.80
2015,11,18,09,57,6.90
2015,11,18,09,58,6.90
2015,11,18,09,59,7.00
2015,11,18,10,00,7.00
2015,11,18,10,01,7.10
2015,11,18,10,02,7.10
2015,11,18,10,03,7.20
2015,11,18,10,04,7.20
2015,11,18,10,05,7.30
2015,11,18,10,06,7.30
2015,11,18,10,07,7.30
2015,11,18,10,08,7.30
2015,11,18,10,09,7.30
2015,11,18,10,10,7.30
2015,11,18,10,11,7.40
2015,11,18,10,12,7.40
2015,11,18,10,13,7.40
2015,11,18,10,14,7.40
2015,11,18,10,15,7.50
2015,11,18,10,16,7.50
2015,11,18,10,17,7.50
2015,11,18,10,18,7.50
2015,11,18,10,19,7.50
2015,11,18,10,20,7.60
2015,11,18,10,21,7.60
2015,11,18,10,22,7.60
2015,11,18,10,23,7.60
2015,11,18,10,24,7.60
2015,11,18,10,25,7.60
2015,11,18,10,26,7.60
2015,11,18,10,27,7.60
2015,11,18,10,28,7.60
2015,11,18,10,29,7.60
2015,11,18,10,30,7.70
2015,11,18,10,31,7.70
2015,11,18,10,32,7.70
2015,11,18,10,33,7.70
2015,11,18,10,34,7.70
2015,11,18,10,35,7.80
2015,11,18,10,36,7.80
2015,11,18,10,37,7.80
2015,11,18,10,38,7.80
2015,11,18,10,39,7.80
2015,11,18,10,40,7.80
2015,11,18,10,41,7.80
2015,11,18,10,42,7.80
2015,11,18,10,43,7.90
2015,11,18,10,44,7.90
2015,11,18,10,45,7.90
2015,11,18,10,46,7.90
2015,11,18,10,47,7.90
2015,11,18,10,48,7.90
2015,11,18,10,49,8.00
2015,11,18,10,50,7.90
2015,11,18,10,51,8.00
2015,11,18,10,52,8.00
2015,11,18,10,53,8.00
2015,11,18,10,54,8.00
2015,11,18,10,55,8.00
2015,11,18,10,56,8.00
2015,11,18,10,57,8.10
2015,11,18,10,58,8.10
2015,11,18,10,59,8.10
2015,11,18,11,00,8.10
2015,11,18,11,01,8.10
2015,11,18,11,02,8.10
2015,11,18,11,03,8.00
2015,11,18,11,04,8.00
2015,11,18,11,05,8.00
2015,11,18,11,06,8.00
2015,11,18,11,07,8.00
2015,11,18,11,08,8.00
2015,11,18,11,09,8.00
2015,11,18,11,10,8.00
2015,11,18,11,11,8.00
2015,11,18,11,12,8.10
2015,11,18,11,13,8.10
2015,11,18,11,14,8.10
2015,11,18,11,15,8.10
2015,11,18,11,16,8.10
2015,11,18,11,17,8.20
2015,11,18,11,18,8.20
2015,11,18,11,19,8.20
2015,11,18,11,20,8.20
2015,11,18,11,21,8.20
2015,11,18,11,22,8.20
2015,11,18,11,23,8.20
2015,11,18,11,24,8.20
2015,11,18,11,25,8.30
2015,11,18,11,26,8.30
2015,11,18,11,27,8.30
2015,11,18,11,28,8.30
2015,11,18,11,29,8.40
2015,11,18,11,30,8.40
2015,11,18,11,31,8.40
2015,11,18,11,32,8.50
2015,11,18,11,33,8.50
2015,11,18,11,34,8.50
2015,11,18,11,35,8.50
2015,11,18,11,36,8.60
2015,11,18,11,37,8.60
2015,11,18,11,38,8.70
2015,11,18,11,39,8.70
2015,11,18,11,40,8.70
2015,11,18,11,41,8.70
2015,11,18,11,42,8.70
2015,11,18,11,43,8.70
2015,11,18,11,44,8.70
2015,11,18,11,45,8.70
2015,11,18,11,46,8.70
2015,11,18,11,47,8.70
2015,11,18,11,48,8.70
2015,11,18,11,49,8.70
2015,11,18,11,50,8.70
2015,11,18,11,51,8.70
2015,11,18,11,52,8.60
2015,11,18,11,53,8.60
2015,11,18,11,54,8.70
2015,11,18,11,55,8.70
2015,11,18,11,56,8.70
2015,11,18,11,57,8.70
2015,11,18,11,58,8.70
2015,11,18,11,59,8.70
2015,11,18,12,00,8.70
2015,11,18,12,01,8.70
2015,11,18,12,02,8.70
2015,11,18,12,03,8.70
2015,11,18,12,04,8.70
2015,11,18,12,05,8.70
2015,11,18,12,06,8.80
2015,11,18,12,07,8.70
2015,11,18,12,08,8.70
2015,11,18,12,09,8.70
2015,11,18,12,10,8.70
2015,11,18,12,11,8.70
2015,11,18,12,12,8.70
2015,11,18,12,13,8.70
2015,11,18,12,14,8.70
2015,11,18,12,15,8.70
2015,11,18,12,16,8.70
2015,11,18,12,17,8.80
2015,11,18,12,18,8.80
2015,11,18,12,19,8.80
2015,11,18,12,20,8.80
2015,11,18,12,21,8.80
2015,11,18,12,22,8.80
2015,11,18,12,23,8.80
2015,11,18,12,24,8.80
2015,11,18,12,25,8.80
2015,11,18,12,26,8.80
2015,11,18,12,27,8.80
2015,11,18,12,28,8.80
2015,11,18,12,29,8.80
2015,11,18,12,30,8.80
2015,11,18,12,31,8.80
2015,11,18,12,32,8.90
2015,11,18,12,33,8.90
2015,11,18,12,34,8.90
2015,11,18,12,35,8.80
2015,11,18,12,36,8.80
2015,11,18,12,37,8.80
2015,11,18,12,38,8.70
2015,11,18,12,39,8.70
2015,11,18,12,40,8.70
2015,11,18,12,41,8.70
2015,11,18,12,42,8.70
2015,11,18,12,43,8.70
2015,11,18,12,44,8.70
2015,11,18,12,45,8.70
2015,11,18,12,46,8.70
2015,11,18,12,47,8.70
2015,11,18,12,48,8.70
2015,11,18,12,49,8.70
2015,11,18,12,50,8.70
2015,11,18,12,51,8.70
2015,11,18,12,52,8.70
2015,11,18,12,53,8.70
2015,11,18,12,54,8.70
2015,11,18,12,55,8.70
2015,11,18,12,56,8.70
2015,11,18,12,57,8.60
2015,11,18,12,58,8.60
2015,11,18,12,59,8.60
2015,11,18,13,00,8.50
2015,11,18,13,01,8.50
2015,11,18,13,02,8.40
2015,11,18,13,03,8.40
2015,11,18,13,04,8.40
2015,11,18,13,05,8.40
2015,11,18,13,06,8.40
2015,11,18,13,07,8.30
2015,11,18,13,08,8.40
2015,11,18,13,09,8.40
2015,11,18,13,10,8.30
2015,11,18,13,11,8.30
2015,11,18,13,12,8.30
2015,11,18,13,13,8.30
2015,11,18,13,14,8.30
2015,11,18,13,15,8.30
2015,11,18,13,16,8.30
2015,11,18,13,17,8.30
2015,11,18,13,18,8.30
2015,11,18,13,19,8.30
2015,11,18,13,20,8.30
2015,11,18,13,21,8.30
2015,11,18,13,22,8.30
2015,11,18,13,23,8.30
2015,11,18,13,24,8.20
2015,11,18,13,25,8.30
2015,11,18,13,26,8.30
2015,11,18,13,27,8.20
2015,11,18,13,28,8.20
2015,11,18,13,29,8.30
2015,11,18,13,30,8.20
2015,11,18,13,31,8.30
2015,11,18,13,32,8.30
2015,11,18,13,33,8.30
2015,11,18,13,34,8.30
2015,11,18,13,35,8.30
2015,11,18,13,36,8.30
2015,11,18,13,37,8.30
2015,11,18,13,38,8.30
2015,11,18,13,39,8.30
2015,11,18,13,40,8.30
2015,11,18,13,41,8.30
2015,11,18,13,42,8.30
2015,11,18,13,43,8.30
2015,11,18,13,44,8.30
2015,11,18,13,45,8.30
2015,11,18,13,46,8.30
2015,11,18,13,47,8.30
2015,11,18,13,48,8.20
2015,11,18,13,49,8.20
2015,11,18,13,50,8.20
2015,11,18,13,51,8.20
2015,11,18,13,52,8.20
2015,11,18,13,53,8.20
2015,11,18,13,54,8.20
2015,11,18,13,55,8.20
2015,11,18,13,56,8.20
2015,11,18,13,57,8.20
2015,11,18,13,58,8.20
2015,11,18,13,59,8.20
2015,11,18,14,00,8.20
2015,11,18,14,01,8.20
2015,11,18,14,02,8.20
2015,11,18,14,03,8.20
2015,11,18,14,04,8.20
2015,11,18,14,05,8.20
2015,11,18,14,06,8.10
2015,11,18,14,07,8.10
2015,11,18,14,08,8.10
2015,11,18,14,09,8.10
2015,11,18,14,10,8.10
2015,11,18,14,11,8.10
2015,11,18,14,12,8.00
2015,11,18,14,13,8.00
2015,11,18,14,14,8.00
2015,11,18,14,15,8.00
2015,11,18,14,16,8.00
2015,11,18,14,17,7.90
2015,11,18,14,18,7.90
2015,11,18,14,19,7.90
2015,11,18,14,20,7.90
2015,11,18,14,21,7.90
2015,11,18,14,22,7.90
2015,11,18,14,23,7.90
2015,11,18,14,24,7.90
2015,11,18,14,25,7.90
2015,11,18,14,26,7.90
2015,11,18,14,27,7.80
2015,11,18,14,28,7.80
2015,11,18,14,29,7.80
2015,11,18,14,30,7.80
2015,11,18,14,31,7.80
2015,11,18,14,32,7.80
2015,11,18,14,33,7.80
2015,11,18,14,34,7.80
2015,11,18,14,35,7.80
2015,11,18,14,36,7.80
2015,11,18,14,37,7.70
2015,11,18,14,38,7.80
2015,11,18,14,39,7.70
2015,11,18,14,40,7.70
2015,11,18,14,41,7.70
2015,11,18,14,42,7.70
2015,11,18,14,43,7.70
2015,11,18,14,44,7.70
2015,11,18,14,45,7.70
2015,11,18,14,46,7.70
2015,11,18,14,47,7.70
2015,11,18,14,48,7.70
2015,11,18,14,49,7.70
2015,11,18,14,50,7.70
2015,11,18,14,51,7.70
2015,11,18,14,52,7.70
2015,11,18,14,53,7.70
2015,11,18,14,54,7.70
2015,11,18,14,55,7.70
2015,11,18,14,56,7.70
2015,11,18,14,57,7.70
2015,11,18,14,58,7.70
2015,11,18,14,59,7.70
2015,11,18,15,00,7.70
2015,11,18,15,01,7.70
2015,11,18,15,02,7.70
2015,11,18,15,03,7.70
2015,11,18,15,04,7.70
2015,11,18,15,05,7.70
2015,11,18,15,06,7.70
2015,11,18,15,07,7.70
2015,11,18,15,08,7.70
2015,11,18,15,09,7.70
2015,11,18,15,10,7.70
2015,11,18,15,11,7.70
2015,11,18,15,12,7.70
2015,11,18,15,13,7.70
2015,11,18,15,14,7.70
2015,11,18,15,15,7.70
2015,11,18,15,16,7.70
2015,11,18,15,17,7.70
2015,11,18,15,18,7.70
2015,11,18,15,19,7.70
2015,11,18,15,20,7.70
2015,11,18,15,21,7.60
2015,11,18,15,22,7.60
2015,11,18,15,23,7.60
2015,11,18,15,24,7.60
2015,11,18,15,25,7.60
2015,11,18,15,26,7.60
2015,11,18,15,27,7.60
2015,11,18,15,28,7.70
2015,11,18,15,29,7.70
2015,11,18,15,30,7.70
2015,11,18,15,31,7.70
2015,11,18,15,32,7.70
2015,11,18,15,33,7.70
2015,11,18,15,34,7.70
2015,11,18,15,35,7.70
2015,11,18,15,36,7.70
2015,11,18,15,37,7.70
2015,11,18,15,38,7.70
2015,11,18,15,39,7.70
2015,11,18,15,40,7.70
2015,11,18,15,41,7.70
2015,11,18,15,42,7.70
2015,11,18,15,43,7.70
2015,11,18,15,44,7.70
2015,11,18,15,45,7.70
2015,11,18,15,46,7.70
2015,11,18,15,47,7.70
2015,11,18,15,48,7.70
2015,11,18,15,49,7.70
2015,11,18,15,50,7.70
2015,11,18,15,51,7.70
2015,11,18,15,52,7.70
2015,11,18,15,53,7.70
2015,11,18,15,54,7.70
2015,11,18,15,55,7.70
2015,11,18,15,56,7.70
2015,11,18,15,57,7.70
2015,11,18,15,58,7.70
2015,11,18,15,59,7.70
2015,11,18,16,00,7.70
2015,11,18,16,01,7.70
2015,11,18,16,02,7.70
2015,11,18,16,03,7.70
2015,11,18,16,04,7.70
2015,11,18,16,05,7.70
2015,11,18,16,06,7.70
2015,11,18,16,07,7.70
2015,11,18,16,08,7.70
2015,11,18,16,09,7.70
2015,11,18,16,10,7.70
2015,11,18,16,11,7.70
2015,11,18,16,12,7.70
2015,11,18,16,13,7.70
2015,11,18,16,14,7.70
2015,11,18,16,15,7.70
2015,11,18,16,16,7.70
2015,11,18,16,17,7.70
2015,11,18,16,18,7.70
2015,11,18,16,19,7.60
2015,11,18,16,20,7.60
2015,11,18,16,21,7.60
2015,11,18,16,22,7.60
2015,11,18,16,23,7.60
2015,11,18,16,24,7.60
2015,11,18,16,25,7.60
2015,11,18,16,26,7.60
2015,11,18,16,27,7.60
2015,11,18,16,28,7.50
2015,11,18,16,29,7.50
2015,11,18,16,30,7.50
2015,11,18,16,31,7.50
2015,11,18,16,32,7.50
2015,11,18,16,33,7.50
2015,11,18,16,34,7.50
2015,11,18,16,35,7.40
2015,11,18,16,36,7.40
2015,11,18,16,37,7.40
2015,11,18,16,38,7.40
2015,11,18,16,39,7.40
2015,11,18,16,40,7.40
2015,11,18,16,41,7.40
2015,11,18,16,42,7.40
2015,11,18,16,43,7.30
2015,11,18,16,44,7.30
2015,11,18,16,45,7.30
2015,11,18,16,46,7.30
2015,11,18,16,47,7.30
2015,11,18,16,48,7.30
2015,11,18,16,49,7.30
2015,11,18,16,50,7.30
2015,11,18,16,51,7.30
2015,11,18,16,52,7.30
2015,11,18,16,53,7.30
2015,11,18,16,54,7.30
2015,11,18,16,55,7.30
2015,11,18,16,56,7.30
2015,11,18,16,57,7.30
2015,11,18,16,58,7.30
2015,11,18,16,59,7.30
2015,11,18,17,00,7.30
2015,11,18,17,01,7.30
2015,11,18,17,02,7.30
2015,11,18,17,03,7.30
2015,11,18,17,04,7.20
2015,11,18,17,05,7.20
2015,11,18,17,06,7.20
2015,11,18,17,07,7.20
2015,11,18,17,08,7.20
2015,11,18,17,09,7.10
2015,11,18,17,10,7.10
2015,11,18,17,11,7.10
2015,11,18,17,12,7.10
2015,11,18,17,13,7.10
2015,11,18,17,14,7.10
2015,11,18,17,15,7.00
2015,11,18,17,16,7.00
2015,11,18,17,17,7.00
2015,11,18,17,18,7.00
2015,11,18,17,19,7.00
2015,11,18,17,20,7.00
2015,11,18,17,21,7.00
2015,11,18,17,22,7.00
2015,11,18,17,23,7.00
2015,11,18,17,24,7.00
2015,11,18,17,25,6.90
2015,11,18,17,26,6.90
2015,11,18,17,27,6.90
2015,11,18,17,28,6.90
2015,11,18,17,29,6.90
2015,11,18,17,30,6.90
2015,11,18,17,31,7.00
2015,11,18,17,32,7.00
2015,11,18,17,33,7.00
2015,11,18,17,34,7.00
2015,11,18,17,35,7.00
2015,11,18,17,36,7.00
2015,11,18,17,37,7.00
2015,11,18,17,38,7.00
2015,11,18,17,39,7.00
2015,11,18,17,40,7.00
2015,11,18,17,41,7.00
2015,11,18,17,42,7.00
2015,11,18,17,43,7.00
2015,11,18,17,44,7.00
2015,11,18,17,45,7.00
2015,11,18,17,46,7.00
2015,11,18,17,47,7.00
2015,11,18,17,48,7.00
2015,11,18,17,49,7.00
2015,11,18,17,50,7.00
2015,11,18,17,51,7.00
2015,11,18,17,52,7.00
2015,11,18,17,53,7.00
2015,11,18,17,54,7.00
2015,11,18,17,55,7.00
2015,11,18,17,56,7.00
2015,11,18,17,57,7.00
2015,11,18,17,58,7.00
2015,11,18,17,59,7.00
2015,11,18,18,00,6.90
2015,11,18,18,01,6.90
2015,11,18,18,02,6.90
2015,11,18,18,03,6.90
2015,11,18,18,04,6.90
2015,11,18,18,05,6.90
2015,11,18,18,06,6.90